Weather History for Crane Lake, MN

Change the Weather History Date:

Tuesday, July 31, 2012

  Actual Average Record
Temperature  
Mean Temperature 64 °F -  
Max Temperature 82 °F 74 °F 91 °F (2007)
Min Temperature 46 °F 53 °F 46 °F (1998)
Degree Days  
Heating Degree Days 1    
Growing Degree Days 14 (Base 50)    
Moisture  
Dew Point 57 °F    
Average Humidity 77    
Maximum Humidity 100    
Minimum Humidity 51    
Precipitation  
Precipitation 0.00 in - - ()
Sea Level Pressure  
Sea Level Pressure 29.97 in    
Wind  
Wind Speed 1 mph (SSW)    
Max Wind Speed 8 mph    
Max Gust Speed -    
Visibility 9 miles    
Events      
Averages and records for this station are not official NWS values.
T = Trace of Precipitation, MM = Missing Value Source: NWS Daily Summary

Daily Weather History Graph

Daily Weather History Graph

Search for Another Location

Airport:

Trip Planner

Search our weather history database for the weather conditions in past years. The results will help you decide how hot, cold, wet, or windy it might be!

Date:

Astronomy

Jul. 31, 2012 Rise Set
Actual Time 5:44 AM CDT 8:47 PM CDT
Civil Twilight 5:07 AM CDT 9:23 PM CDT
Nautical Twilight 4:20 AM CDT 10:11 PM CDT
Astronomical Twilight 3:21 AM CDT 11:09 PM CDT
Moon 7:35 PM CDT (7/31) 4:04 AM CDT (7/31)
Length of Visible Light 16h 15m
Length of Day
15h 02m
Waxing Gibbous, 97% of the Moon is Illuminated
Jul 31
Waxing Gibbous
Aug 1
Full
Aug 9
Last Quarter
Aug 17
New
Aug 24
First Quarter

Hourly Weather History & Observations

Time (CDT) Temp. Heat Index Dew Point Humidity Pressure Visibility Wind Dir Wind Speed Gust Speed Precip Events Conditions
12:12 AM 53.6 °F - 48.2 °F 82% 30.00 in 10.0 mi Calm Calm - N/A   Clear
12:32 AM 51.8 °F - 48.2 °F 88% 30.00 in 7.0 mi Calm Calm - N/A   Clear
12:52 AM 51.8 °F - 48.2 °F 88% 30.00 in 7.0 mi Calm Calm - N/A   Clear
1:12 AM 51.8 °F - 48.2 °F 88% 30.00 in 7.0 mi Calm Calm - N/A   Clear
1:32 AM 51.8 °F - 48.2 °F 88% 30.00 in 7.0 mi Calm Calm - N/A   Clear
1:52 AM 50.0 °F - 48.2 °F 94% 30.00 in 7.0 mi Calm Calm - N/A   Clear
2:12 AM 50.0 °F - 46.4 °F 87% 30.00 in 7.0 mi Calm Calm - N/A   Clear
2:33 AM 50.0 °F - 46.4 °F 87% 30.00 in 10.0 mi Calm Calm - N/A   Clear
2:52 AM 48.2 °F - 46.4 °F 93% 30.00 in 7.0 mi Calm Calm - N/A   Clear
3:12 AM 48.2 °F - 46.4 °F 93% 30.00 in 7.0 mi Calm Calm - N/A   Clear
3:32 AM 48.2 °F - 46.4 °F 93% 29.99 in 7.0 mi Calm Calm - N/A   Clear
3:52 AM 48.2 °F - 46.4 °F 93% 30.00 in 5.0 mi Calm Calm - N/A   Clear
4:12 AM 48.2 °F - 46.4 °F 93% 30.00 in 7.0 mi Calm Calm - N/A   Clear
4:32 AM 48.2 °F - 46.4 °F 93% 30.00 in 7.0 mi Calm Calm - N/A   Clear
4:52 AM 48.2 °F - 46.4 °F 93% 30.00 in 5.0 mi Calm Calm - N/A   Clear
5:12 AM 46.4 °F - 46.4 °F 100% 30.01 in 5.0 mi Calm Calm - N/A   Clear
5:32 AM 48.2 °F - 46.4 °F 93% 30.01 in 7.0 mi Calm Calm - N/A   Clear
5:53 AM 48.2 °F - 46.4 °F 93% 30.02 in 7.0 mi Calm Calm - N/A   Clear
6:12 AM 48.2 °F - 46.4 °F 93% 30.01 in 5.0 mi Calm Calm - N/A   Clear
6:32 AM 48.2 °F - 46.4 °F 93% 30.01 in 7.0 mi Calm Calm - N/A   Clear
6:52 AM 48.2 °F - 48.2 °F 100% 30.01 in 10.0 mi Calm Calm - N/A   Clear
7:12 AM 51.8 °F - 51.8 °F 100% 30.01 in 7.0 mi Calm Calm - N/A   Clear
7:32 AM 55.4 °F - 53.6 °F 94% 30.01 in 10.0 mi Calm Calm - N/A   Clear
7:52 AM 57.2 °F - 55.4 °F 94% 30.01 in 10.0 mi Calm Calm - N/A   Clear
8:12 AM 59.0 °F - 57.2 °F 94% 30.03 in 10.0 mi Calm Calm - N/A   Clear
8:32 AM 64.4 °F - 62.6 °F 94% 30.03 in 10.0 mi SSW 3.5 mph - N/A   Clear
8:52 AM 66.2 °F - 64.4 °F 94% 30.03 in 10.0 mi South 5.8 mph - N/A   Clear
9:12 AM 69.8 °F - 62.6 °F 78% 30.03 in 10.0 mi SW 4.6 mph - N/A   Clear
9:32 AM 71.6 °F - 60.8 °F 69% 30.04 in 10.0 mi SW 6.9 mph - N/A   Clear
9:52 AM 71.6 °F - 60.8 °F 69% 30.04 in 10.0 mi SSW 5.8 mph - N/A   Clear
10:14 AM 73.4 °F - 60.8 °F 65% 30.02 in 10.0 mi South 3.5 mph - N/A   Clear
10:32 AM 75.2 °F - 62.6 °F 65% 30.01 in 10.0 mi Calm Calm - N/A   Clear
10:52 AM 75.2 °F - 60.8 °F 61% 30.00 in 10.0 mi Calm Calm - N/A   Clear
11:12 AM 75.2 °F - 62.6 °F 65% 29.99 in 10.0 mi Calm Calm - N/A   Clear
11:32 AM 78.8 °F - 62.6 °F 57% 29.99 in 10.0 mi Calm Calm - N/A   Clear
11:52 AM 78.8 °F - 69.8 °F 74% 30.00 in 10.0 mi Calm Calm - N/A   Clear
12:12 PM 80.6 °F 84.6 °F 71.6 °F 74% 30.01 in 10.0 mi SW 4.6 mph - N/A   Clear
12:32 PM 80.6 °F 84.6 °F 71.6 °F 74% 30.00 in 10.0 mi WSW 5.8 mph - N/A   Scattered Clouds
12:52 PM 80.6 °F 81.5 °F 60.8 °F 51% 29.99 in 10.0 mi South 3.5 mph - N/A   Clear
1:12 PM 80.6 °F 81.5 °F 60.8 °F 51% 29.99 in 10.0 mi Calm Calm - N/A   Scattered Clouds
1:32 PM 80.6 °F 81.8 °F 62.6 °F 54% 29.98 in 10.0 mi Calm Calm - N/A   Scattered Clouds
1:52 PM 80.6 °F 82.3 °F 64.4 °F 58% 29.98 in 10.0 mi Calm Calm - N/A   Scattered Clouds
2:12 PM 80.6 °F 82.3 °F 64.4 °F 58% 29.97 in 10.0 mi West 4.6 mph - N/A   Scattered Clouds
2:32 PM 82.4 °F 83.4 °F 62.6 °F 51% 29.97 in 10.0 mi SW 3.5 mph - N/A   Scattered Clouds
2:53 PM 82.4 °F 83.4 °F 62.6 °F 51% 29.96 in 10.0 mi Calm Calm - N/A   Clear
3:12 PM 82.4 °F 83.4 °F 62.6 °F 51% 29.96 in 10.0 mi SSW 4.6 mph - N/A   Clear
3:32 PM 82.4 °F 83.4 °F 62.6 °F 51% 29.96 in 10.0 mi SSW 4.6 mph - N/A   Scattered Clouds
3:52 PM 80.6 °F 81.8 °F 62.6 °F 54% 29.95 in 10.0 mi SSW 4.6 mph - N/A   Clear
4:12 PM 80.6 °F 81.8 °F 62.6 °F 54% 29.95 in 10.0 mi South 8.1 mph - N/A   Scattered Clouds
4:32 PM 80.6 °F 81.8 °F 62.6 °F 54% 29.95 in 10.0 mi SSW 4.6 mph - N/A   Scattered Clouds
4:52 PM 80.6 °F 81.8 °F 62.6 °F 54% 29.95 in 10.0 mi WSW 4.6 mph - N/A   Clear
5:12 PM 82.4 °F 83.4 °F 62.6 °F 51% 29.95 in 10.0 mi SSW 8.1 mph - N/A   Scattered Clouds
5:32 PM 78.8 °F - 62.6 °F 57% 29.95 in 10.0 mi SSW 5.8 mph - N/A   Clear
5:52 PM 77.0 °F - 64.4 °F 65% 29.94 in 10.0 mi South 3.5 mph - N/A   Clear
6:12 PM 75.2 °F - 64.4 °F 69% 29.93 in 10.0 mi South 3.5 mph - N/A   Clear
6:32 PM 75.2 °F - 64.4 °F 69% 29.92 in 10.0 mi Calm Calm - N/A   Clear
7:12 PM 75.2 °F - 64.4 °F 69% 29.91 in 10.0 mi South 3.5 mph - N/A   Clear
7:32 PM 75.2 °F - 64.4 °F 69% 29.91 in 10.0 mi Calm Calm - N/A   Clear
7:52 PM 73.4 °F - 64.4 °F 73% 29.91 in 10.0 mi Calm Calm - N/A   Clear
8:12 PM 73.4 °F - 64.4 °F 73% 29.91 in 10.0 mi Calm Calm - N/A   Clear
8:32 PM 71.6 °F - 62.6 °F 73% 29.91 in 10.0 mi Calm Calm - N/A   Clear
8:52 PM 68.0 °F - 60.8 °F 78% 29.91 in 10.0 mi Calm Calm - N/A   Clear
9:12 PM 66.2 °F - 59.0 °F 78% 29.91 in 10.0 mi Calm Calm - N/A   Clear
9:32 PM 64.4 °F - 59.0 °F 83% 29.91 in 10.0 mi Calm Calm - N/A   Clear
9:52 PM 62.6 °F - 57.2 °F 82% 29.91 in 10.0 mi Calm Calm - N/A   Clear
10:12 PM 62.6 °F - 57.2 °F 82% 29.91 in 10.0 mi Calm Calm - N/A   Clear
10:32 PM 60.8 °F - 57.2 °F 88% 29.91 in 10.0 mi Calm Calm - N/A   Clear
10:52 PM 60.8 °F - 57.2 °F 88% 29.90 in 7.0 mi Calm Calm - N/A   Clear
11:12 PM 60.8 °F - 57.2 °F 88% 29.90 in 10.0 mi Calm Calm - N/A   Clear
11:32 PM 60.8 °F - 57.2 °F 88% 29.90 in 10.0 mi Calm Calm - N/A   Clear
11:52 PM 60.8 °F - 57.2 °F 88% 29.90 in 10.0 mi Calm Calm - N/A   Clear